Content
SEND FEEDBACK

Daily
Averages
Monthly
Summary
United States of America

TYSON'S CORNER, VIRGINIA


Home > North America > United States > Virginia
Elevation: 50 feet     Latitude: 38 55N     Longitude: 077 14W

WEATHER
 
SELECT A DAY
Number of Records: 750,795;   Date Range: 1/1/95 - 7/29/14
 
SHARE

PRINT THIS DATA

[ ← Previous Day ]
WEATHER ALMANAC - JANUARY 31, 2013
[ Next Day → ]
[ °C ]   °F
Weather ElementAverageHighLow
Temperature48.8 °F66.2 °F (12:34 am)33.1 °F (9:52 pm)
Dewpoint31.1 °F60.8 °F (12:34 am)10 °F (8:52 pm)
Humidity53 %88 % (1:00 am)30 % (12:52 pm)
Barometer29.55 in29.94 in (11:52 pm)29.16 in (1:11 am)
Wind Speed18.4 mph29.9 mph (4:32 am)
Wind Gust42.6 mph (1:27 am)
Weather ElementAverage
Visibility8.9 mi
Wind DirectionW (273.2 °)

Weather ElementTotal
Precipitation0.60 in
Heating Degree Days15.4 (Base 65)
Averaged from 31 records on January 31, 2013
WEATHER CONDITIONS BREAKOUT
WIND DIRECTION BREAKOUT
Weather ElementAverageHighLow
Temperature48.8 °F66.2 °F (12:34 am)33.1 °F (9:52 pm)
Dewpoint31.1 °F60.8 °F (12:34 am)10 °F (8:52 pm)
Humidity53 %88 % (1:00 am)30 % (12:52 pm)
Barometer29.55 in29.94 in (11:52 pm)29.16 in (1:11 am)
Wind Speed18.4 mph29.9 mph (4:32 am)
Wind Gust42.6 mph (1:27 am)
Weather ElementAverage
Visibility8.9 mi
Wind DirectionW (273.2 °)

Weather ElementTotal
Precipitation0.60 in
Heating Degree Days15.4 (Base 65)
Averaged from 31 records on January 31, 2013
WEATHER CONDITIONS BREAKOUT
WIND DIRECTION BREAKOUT
WEATHER BY HOUR - JANUARY 31, 2013
[ °C ]   °F
Local TimeTemperatureDewpointHumidityBarometerVisibilityWind DirectionWind SpeedGust SpeedPrecipitationEventsConditions
12:34 AM66.2 °F60.8 °F83 %29.22 in5.0 miWSW (240°)15.0 mph33.4 mph0.02 inRainLight Rain
12:52 AM64.9 °F60.1 °F84 %29.19 in2.5 miSouth (190°)23.0 mph31.1 mph0.09 inRainRain
1:00 AM60.8 °F57.2 °F88 %29.18 in4.0 miSouth (190°)21.9 mph28.8 mph0.05 inRainRain
1:11 AM64.4 °F60.8 °F88 %29.16 in8.0 miSouth (190°)23.0 mph35.7 mph0.07 inRainLight Rain
1:27 AM64.4 °F60.8 °F88 %29.20 in3.0 miWest (260°)26.5 mph42.6 mph0.08 inRainLight Rain
1:33 AM64.4 °F60.8 °F88 %29.21 in7.0 miWSW (250°)18.4 mph33.4 mph0.10 inRainLight Rain
1:52 AM63.0 °F57.0 °F81 %29.24 in6.0 miWest (260°)19.6 mph27.6 mph0.13 inRainLight Rain
2:52 AM60.1 °F50.0 °F69 %29.21 in10.0 miSW (230°)16.1 mph35.7 mph0.06 inOvercast
3:52 AM60.1 °F48.9 °F67 %29.22 in10.0 miSW (230°)19.6 mph31.1 mph0.00 inOvercast
4:32 AM55.4 °F41.0 °F58 %29.28 in10.0 miWNW (290°)29.9 mph38.0 mph0.00 inRainLight Rain
4:52 AM53.1 °F37.9 °F57 %29.30 in10.0 miWNW (290°)17.3 mph27.6 mph0.00 inOvercast
5:52 AM50.0 °F33.1 °F52 %29.39 in10.0 miWNW (290°)15.0 mph28.8 mph0.00 inOvercast
6:52 AM48.0 °F30.0 °F50 %29.47 in10.0 miWNW (300°)15.0 mph32.2 mphScattered Clouds
7:41 AM44.6 °F28.4 °F53 %29.52 in10.0 miNW (310°)21.9 mph34.5 mphScattered Clouds
7:52 AM44.1 °F28.0 °F53 %29.54 in10.0 miWNW (300°)20.7 mph28.8 mphScattered Clouds
8:52 AM44.1 °F24.1 °F45 %29.58 in10.0 miWNW (290°)18.4 mph28.8 mphScattered Clouds
9:52 AM45.0 °F21.9 °F40 %29.62 in10.0 miWNW (290°)23.0 mph39.1 mphScattered Clouds
10:52 AM46.0 °F19.9 °F35 %29.66 in10.0 miWNW (290°)18.4 mph23.0 mphPartly Cloudy
11:52 AM48.0 °F19.0 °F32 %29.66 in10.0 miWest (280°)15.0 mph26.5 mphScattered Clouds
12:52 PM46.9 °F17.1 °F30 %29.68 in10.0 miWest (270°)24.2 mph34.5 mphScattered Clouds
1:52 PM46.0 °F17.1 °F31 %29.70 in10.0 miWNW (290°)19.6 mph28.8 mphScattered Clouds
2:52 PM45.0 °F18.0 °F34 %29.73 in10.0 miWNW (290°)18.4 mph33.4 mphScattered Clouds
3:52 PM42.1 °F15.1 °F34 %29.78 in10.0 miWNW (290°)25.3 mph34.5 mphMostly Cloudy
4:52 PM39.9 °F15.1 °F36 %29.82 in10.0 miNW (310°)13.8 mph21.9 mphMostly Cloudy
5:52 PM39.0 °F12.9 °F34 %29.84 in10.0 miWest (270°)16.1 mph24.2 mphScattered Clouds
6:52 PM37.9 °F15.1 °F39 %29.88 in10.0 miWNW (300°)21.9 mph31.1 mphScattered Clouds
7:52 PM36.0 °F10.9 °F36 %29.92 in10.0 miWNW (300°)17.3 mph29.9 mphPartly Cloudy
8:52 PM34.0 °F10.0 °F37 %29.92 in10.0 miNNW (330°)12.7 mphClear
9:52 PM33.1 °F10.9 °F40 %29.92 in10.0 miNNW (330°)10.4 mphClear
10:52 PM34.0 °F10.9 °F38 %29.93 in10.0 miWest (280°)5.8 mphMostly Cloudy
11:52 PM33.1 °F12.0 °F42 %29.94 in10.0 miWSW (240°)5.8 mphMostly Cloudy
Hourly data recorded from KDCA, located miles away from Tyson's Corner, Virginia







STORIES FROM OUR PARTNERS